GW3397 Weather Reports


Display with metric or nautical units.
time (UTC)temp
F
wind
direction
speed
MPH
gust
MPH
rain 1hr
in
rain 24hr
in
rain mn
in
humidity
%
barometer
mb
20260902152512 65 105 0.0 1.0 0.00 0.00 0.00 95 1024.3
20260902152007 65 122 1.0 3.0 0.00 0.00 0.00 96 1024.3
20260902151503 65 180 0.0 7.0 0.00 0.00 0.00 96 1024.5
20260902150957 65 118 2.0 6.0 0.00 0.00 0.00 95 1024.7
20260902150452 65 29 1.0 3.0 0.00 0.00 0.00 96 1024.8
20260902145952 65 19 2.0 3.0 0.00 0.00 0.00 95 1025.0
20260902145447 65 114 1.0 3.0 0.00 0.00 0.00 95 1024.8
20260902144941 65 127 1.0 5.0 0.00 0.00 0.00 95 1025.0
20260902144437 65 41 1.0 2.0 0.00 0.00 0.00 95 1024.9
20260902143932 64 164 2.0 2.0 0.00 0.00 0.00 95 1025.1
20260902143427 65 134 1.0 5.0 0.00 0.00 0.00 96 1025.0
20260902142923 64 347 1.0 6.0 0.00 0.00 0.00 96 1024.6
20260902142419 64 32 1.0 1.0 0.00 0.00 0.00 96 1024.9
20260902141914 64 38 0.0 2.0 0.00 0.00 0.00 96 1024.8
20260902141409 64 32 0.0 5.0 0.00 0.00 0.00 96 1024.7
20260902140908 65 111 2.0 3.0 0.00 0.00 0.00 96 1024.7
20260902140404 65 113 1.0 3.0 0.00 0.00 0.00 96 1024.6
20260902135858 65 121 1.0 3.0 0.00 0.00 0.00 96 1024.8
20260902135354 65 55 1.0 1.0 0.00 0.00 0.00 96 1024.8
20260902134853 64 31 0.0 1.0 0.00 0.00 0.00 96 1024.8
20260902134349 64 31 0.0 0.0 0.00 0.00 0.00 96 1024.4
20260902133843 64 64 1.0 2.0 0.00 0.00 0.00 96 1024.5
20260902133343 64 359 1.0 1.0 0.00 0.00 0.00 96 1024.6
20260902132838 64 17 0.0 0.0 0.00 0.00 0.00 96 1024.6
20260902132333 64 354 0.0 2.0 0.00 0.00 0.00 96 1024.3
20260902131829 64 55 1.0 2.0 0.00 0.00 0.00 96 1024.4
20260902131326 64 288 0.0 1.0 0.00 0.00 0.00 96 1024.5
20260902130825 64 17 0.0 1.0 0.00 0.00 0.00 96 1024.7
20260902130321 64 3 1.0 1.0 0.00 0.00 0.00 96 1024.6
20260902125816 64 66 1.0 2.0 0.00 0.00 0.00 96 1024.9
20260902125312 64 66 1.0 2.0 0.00 0.00 0.00 96 1024.9
20260902124808 64 35 1.0 2.0 0.00 0.00 0.00 96 1024.7
20260902124303 63 105 3.0 5.0 0.00 0.00 0.00 96 1024.4
20260902123758 64 122 3.0 3.0 0.00 0.00 0.00 97 1024.5
20260902123254 63 29 0.0 1.0 0.00 0.00 0.00 97 1024.4
20260902122752 63 95 1.0 1.0 0.00 0.00 0.00 97 1024.5
20260902122249 63 18 1.0 1.0 0.00 0.00 0.00 97 1024.5
20260902121743 63 18 1.0 1.0 0.00 0.00 0.00 97 1024.3
20260902121238 63 18 1.0 1.0 0.00 0.00 0.00 97 1024.5
20260902120733 63 18 1.0 1.0 0.00 0.00 0.00 97 1024.2
20260902120229 63 16 1.0 2.0 0.00 0.00 0.00 97 1024.2
20260902115724 63 85 2.0 3.0 0.00 0.00 0.00 97 1024.2
20260902115220 63 109 1.0 1.0 0.00 0.00 0.00 97 1024.2
20260902114716 63 49 0.0 1.0 0.00 0.00 0.00 97 1024.3
20260902114211 63 91 2.0 3.0 0.00 0.00 0.00 97 1024.1
20260902113706 63 67 3.0 3.0 0.00 0.00 0.00 97 1024.0
20260902113201 63 67 3.0 3.0 0.00 0.00 0.00 97 1024.1
20260902112701 62 88 3.0 5.0 0.00 0.00 0.00 97 1024.0
20260902112158 62 77 3.0 3.0 0.00 0.00 0.00 97 1024.1
20260902111654 62 82 2.0 2.0 0.00 0.00 0.00 97 1023.8
20260902111149 62 35 4.0 7.0 0.00 0.00 0.00 97 1023.9
20260902110645 62 35 1.0 6.0 0.00 0.00 0.00 97 1024.0
20260902110141 62 64 1.0 2.0 0.00 0.00 0.00 98 1024.0
20260902105640 62 347 0.0 0.0 0.00 0.00 0.00 98 1024.3
20260902105136 62 20 1.0 1.0 0.00 0.00 0.00 97 1024.5
20260902104631 62 20 1.0 1.0 0.00 0.00 0.00 97 1024.4
20260902104126 62 20 1.0 1.0 0.00 0.00 0.00 97 1024.4
20260902103625 62 91 1.0 1.0 0.00 0.00 0.00 97 1024.5
20260902103121 62 35 0.0 0.0 0.00 0.00 0.00 97 1024.5
20260902102617 62 42 1.0 1.0 0.00 0.00 0.00 97 1024.2
20260902102114 62 77 2.0 2.0 0.00 0.00 0.00 97 1024.1
20260902101609 63 107 2.0 2.0 0.00 0.00 0.00 97 1024.2
20260902101109 63 27 1.0 1.0 0.00 0.00 0.00 97 1024.4
20260902100603 62 41 0.0 0.0 0.00 0.00 0.00 97 1024.3
20260902100058 63 20 0.0 1.0 0.00 0.00 0.00 97 1024.3
20260902095557 63 79 2.0 3.0 0.00 0.00 0.00 97 1024.2
20260902095056 63 26 1.0 2.0 0.00 0.00 0.00 97 1023.9
20260902094547 63 119 2.0 2.0 0.00 0.00 0.00 97 1024.2
20260902094042 63 12 0.0 3.0 0.00 0.00 0.00 97 1024.3
20260902093537 63 0 0.0 2.0 0.00 0.00 0.00 97 1024.0
20260902093037 63 229 0.0 1.0 0.00 0.00 0.00 97 1024.1
20260902092532 63 90 2.0 2.0 0.00 0.00 0.00 97 1024.0
20260902092027 63 30 0.0 1.0 0.00 0.00 0.00 97 1024.0
20260902091522 63 334 1.0 1.0 0.00 0.00 0.00 97 1024.0
20260902091018 63 32 0.0 1.0 0.00 0.00 0.00 97 1024.0
20260902090514 63 131 0.0 2.0 0.00 0.00 0.00 97 1023.9
20260902090013 63 34 1.0 1.0 0.00 0.00 0.00 97 1024.0
20260902085513 63 10 0.0 0.0 0.00 0.00 0.00 97 1024.0
20260902085008 63 83 1.0 1.0 0.00 0.00 0.00 97 1023.9
20260902084504 63 71 1.0 2.0 0.00 0.00 0.00 97 1023.8
20260902084000 63 23 0.0 1.0 0.00 0.00 0.00 97 1023.6
20260902083455 63 14 0.0 1.0 0.00 0.00 0.00 97 1023.6
20260902082949 63 4 0.0 5.0 0.00 0.00 0.00 97 1023.5
20260902082445 63 1 0.0 1.0 0.00 0.00 0.00 97 1023.6
20260902081941 63 115 2.0 3.0 0.00 0.00 0.00 97 1023.5
20260902081437 63 46 1.0 1.0 0.00 0.00 0.00 97 1023.6
20260902080932 63 11 0.0 5.0 0.00 0.00 0.00 97 1023.4
20260902080428 63 114 1.0 2.0 0.00 0.00 0.00 97 1023.4
20260902075928 63 346 1.0 5.0 0.00 0.00 0.00 97 1023.3
20260902075424 63 45 0.0 2.0 0.00 0.00 0.00 97 1023.5
20260902074919 63 80 3.0 5.0 0.00 0.00 0.00 97 1023.4
20260902074414 64 36 1.0 2.0 0.00 0.00 0.00 97 1023.8
20260902073909 64 13 1.0 2.0 0.00 0.00 0.00 97 1023.4
20260902073405 64 37 0.0 5.0 0.00 0.00 0.00 97 1023.4
20260902072901 64 99 1.0 5.0 0.00 0.00 0.00 97 1023.4
20260902072356 64 61 1.0 5.0 0.00 0.00 0.00 97 1023.3
20260902071853 64 124 1.0 2.0 0.00 0.00 0.00 97 1023.5
20260902071352 64 83 0.0 5.0 0.00 0.00 0.00 98 1023.3
20260902070849 64 64 1.0 2.0 0.00 0.00 0.00 97 1023.6
20260902070345 64 77 1.0 5.0 0.00 0.00 0.00 98 1023.3
20260902065842 64 54 0.0 2.0 0.00 0.00 0.00 98 1023.5
20260902065338 64 127 1.0 2.0 0.00 0.00 0.00 98 1023.6
20260902064833 64 111 0.0 2.0 0.00 0.00 0.00 98 1023.5
20260902064330 64 46 2.0 3.0 0.00 0.00 0.00 98 1023.5
20260902063824 65 98 3.0 3.0 0.00 0.00 0.00 98 1023.6
20260902063319 65 54 1.0 2.0 0.00 0.00 0.00 98 1023.5
20260902062813 65 325 1.0 1.0 0.00 0.00 0.00 98 1023.8
20260902062308 65 107 3.0 3.0 0.00 0.00 0.00 98 1023.8
20260902061808 65 334 0.0 1.0 0.00 0.00 0.00 98 1023.6
20260902061303 65 179 1.0 2.0 0.00 0.00 0.00 98 1023.4
20260902060800 65 20 0.0 3.0 0.00 0.00 0.00 98 1023.4
20260902060255 65 60 2.0 6.0 0.00 0.00 0.00 98 1023.4
20260902055750 65 101 4.0 5.0 0.00 0.00 0.00 98 1023.6
20260902055246 65 101 0.0 6.0 0.00 0.00 0.00 98 1023.4
20260902054741 66 101 3.0 6.0 0.00 0.00 0.00 98 1023.8
20260902054236 66 115 4.0 6.0 0.00 0.00 0.00 98 1023.3
20260902053731 66 150 1.0 2.0 0.00 0.00 0.00 98 1023.3
20260902053226 66 118 1.0 3.0 0.00 0.00 0.00 98 1023.1
20260902052725 66 321 0.0 3.0 0.00 0.00 0.00 98 1023.2
20260902052221 66 52 1.0 2.0 0.00 0.00 0.00 98 1023.4
20260902051720 66 117 4.0 5.0 0.00 0.00 0.00 98 1023.3
20260902051214 66 110 1.0 2.0 0.00 0.00 0.00 98 1023.1
20260902050709 66 79 2.0 3.0 0.00 0.00 0.00 98 1023.3
20260902050204 66 74 0.0 3.0 0.00 0.00 0.00 98 1022.8
20260902045659 66 124 0.0 0.0 0.00 0.00 0.00 98 1022.9
20260902045155 66 348 0.0 1.0 0.00 0.00 0.00 98 1023.1
20260902044649 66 48 0.0 2.0 0.00 0.00 0.00 98 1023.1
20260902044140 66 87 1.0 3.0 0.00 0.00 0.00 98 1023.2
20260902043635 66 77 0.0 0.0 0.00 0.00 0.00 98 1022.9
20260902043131 66 64 0.0 2.0 0.00 0.00 0.00 98 1022.9
20260902042630 66 35 0.0 1.0 0.00 0.00 0.00 98 1022.7
20260902042125 66 41 3.0 3.0 0.00 0.00 0.00 98 1022.6
20260902041625 66 54 1.0 2.0 0.00 0.00 0.00 98 1022.6
20260902041120 66 47 1.0 2.0 0.00 0.00 0.00 98 1022.5
20260902040619 66 89 0.0 0.0 0.00 0.00 0.00 97 1022.7
20260902040114 66 12 0.0 0.0 0.00 0.00 0.00 97 1022.5
20260902035613 66 56 0.0 0.0 0.00 0.55 0.55 97 1022.5
20260902035108 66 115 0.0 1.0 0.00 0.55 0.55 97 1022.4
20260902034607 66 96 0.0 1.0 0.00 0.55 0.55 97 1022.2
20260902034101 66 57 0.0 2.0 0.00 0.55 0.55 97 1022.3
20260902033601 66 142 1.0 3.0 0.00 0.55 0.55 97 1022.5
20260902033055 66 144 2.0 5.0 0.00 0.55 0.55 97 1022.3
20260902032554 66 105 3.0 5.0 0.00 0.55 0.55 97 1022.5
20260902032049 66 68 3.0 3.0 0.00 0.55 0.55 97 1022.3
20260902031543 66 101 3.0 5.0 0.00 0.55 0.55 97 1022.2
20260902031040 66 116 3.0 3.0 0.00 0.55 0.55 97 1022.3
20260902030534 66 131 5.0 6.0 0.00 0.55 0.55 97 1022.3
20260902030034 67 52 0.0 1.0 0.00 0.55 0.55 97 1022.3
20260902025528 67 159 2.0 7.0 0.00 0.55 0.55 97 1022.5
20260902025024 66 128 3.0 6.0 0.00 0.55 0.55 97 1022.7
20260902024519 66 88 1.0 6.0 0.00 0.55 0.55 97 1022.6
20260902024014 66 143 5.0 6.0 0.00 0.55 0.55 97 1022.6
20260902023510 67 106 3.0 8.0 0.00 0.55 0.55 97 1022.6
20260902023010 67 120 3.0 5.0 0.00 0.55 0.55 97 1022.5
20260902022504 67 122 3.0 5.0 0.00 0.55 0.55 97 1022.5
20260902022000 67 149 3.0 5.0 0.00 0.55 0.55 97 1022.6
20260902021455 67 106 1.0 3.0 0.00 0.55 0.55 97 1022.6
20260902020950 67 117 3.0 3.0 0.00 0.55 0.55 97 1022.9
20260902020446 67 133 3.0 5.0 0.00 0.55 0.55 97 1022.8
20260902015942 67 122 2.0 3.0 0.00 0.55 0.55 97 1022.8
20260902015437 67 159 2.0 2.0 0.00 0.55 0.55 98 1022.6
20260902014932 67 133 1.0 2.0 0.00 0.55 0.55 98 1022.8
20260902014429 67 79 0.0 0.0 0.00 0.55 0.55 97 1022.7
20260902013928 67 74 0.0 2.0 0.00 0.55 0.55 97 1022.4
20260902013424 67 105 0.0 0.0 0.00 0.55 0.55 97 1022.4
20260902012919 67 42 0.0 0.0 0.00 0.55 0.55 97 1022.5
20260902012414 67 48 0.0 0.0 0.00 0.55 0.55 97 1022.4
20260902011910 67 47 0.0 0.0 0.00 0.55 0.55 97 1022.4
20260902011404 67 181 2.0 2.0 0.00 0.55 0.55 97 1022.3
20260902010859 67 126 2.0 2.0 0.00 0.55 0.55 97 1022.3
20260902010353 67 118 1.0 3.0 0.00 0.55 0.55 97 1022.2
20260902005852 67 103 2.0 2.0 0.00 0.55 0.55 97 1022.0
20260902005347 67 139 1.0 2.0 0.00 0.55 0.55 97 1022.0
20260902004843 67 93 1.0 2.0 0.00 0.55 0.55 97 1022.0
20260902004342 67 113 2.0 5.0 0.00 0.55 0.55 97 1021.6
20260902003838 67 139 3.0 3.0 0.00 0.55 0.55 97 1021.7
20260902003333 67 144 2.0 2.0 0.00 0.55 0.55 97 1021.8
20260902002828 67 136 1.0 2.0 0.00 0.55 0.55 97 1021.7
20260902002322 67 75 0.0 1.0 0.00 0.55 0.55 97 1021.8
20260902001818 67 133 1.0 1.0 0.00 0.55 0.55 97 1021.8
20260902001313 67 71 0.0 2.0 0.00 0.55 0.55 97 1021.7
20260902000813 67 24 0.0 0.0 0.00 0.55 0.55 97 1021.8
20260902000307 67 65 0.0 1.0 0.00 0.55 0.55 97 1021.6
20260901235802 67 98 0.0 2.0 0.00 0.55 0.55 97 1021.5
20260901235257 67 46 0.0 2.0 0.00 0.55 0.55 97 1021.4
20260901234756 67 113 1.0 2.0 0.00 0.55 0.55 97 1021.3
20260901234252 67 58 0.0 1.0 0.00 0.55 0.55 97 1021.4
20260901233746 67 59 0.0 1.0 0.00 0.55 0.55 97 1021.6
20260901233242 67 15 0.0 1.0 0.00 0.55 0.55 97 1021.5
20260901232743 67 59 0.0 0.0 0.00 0.55 0.55 97 1021.4
20260901232238 67 71 0.0 1.0 0.00 0.55 0.55 97 1021.4
20260901231733 67 64 1.0 2.0 0.00 0.55 0.55 97 1021.5
20260901231230 67 82 3.0 3.0 0.00 0.55 0.55 97 1021.4
20260901230720 67 117 3.0 5.0 0.00 0.55 0.55 97 1021.3
20260901230219 67 116 3.0 5.0 0.00 0.55 0.55 97 1021.4
20260901225715 67 132 4.0 5.0 0.00 0.55 0.55 96 1021.1
20260901225209 67 109 3.0 3.0 0.00 0.55 0.55 96 1021.4
20260901224705 67 122 4.0 5.0 0.00 0.55 0.55 96 1021.4
20260901224201 67 153 2.0 5.0 0.00 0.55 0.55 96 1021.3
20260901223657 67 121 3.0 3.0 0.00 0.55 0.55 97 1021.4
20260901223157 67 122 5.0 7.0 0.00 0.55 0.55 97 1021.4
20260901222653 67 127 3.0 5.0 0.00 0.55 0.55 97 1021.4
20260901222149 67 146 3.0 5.0 0.00 0.55 0.55 97 1021.3
20260901221645 67 108 4.0 5.0 0.00 0.55 0.55 97 1021.3
20260901221140 67 142 2.0 6.0 0.00 0.55 0.55 97 1021.3
20260901220639 67 126 4.0 5.0 0.00 0.55 0.55 97 1021.4
20260901220139 67 44 0.0 3.0 0.00 0.55 0.55 97 1021.4
20260901215638 67 129 5.0 6.0 0.00 0.55 0.55 97 1021.3
20260901215133 68 66 0.0 1.0 0.00 0.55 0.55 97 1021.2
20260901214631 67 328 0.0 1.0 0.00 0.55 0.55 97 1021.2
20260901214130 67 328 0.0 1.0 0.00 0.55 0.55 97 1021.3
20260901213625 67 33 1.0 1.0 0.00 0.55 0.55 97 1021.5
20260901213119 67 120 2.0 3.0 0.00 0.55 0.55 97 1021.4
20260901212614 67 97 2.0 5.0 0.00 0.55 0.55 97 1021.2
20260901212110 67 114 2.0 6.0 0.00 0.55 0.55 97 1021.2
20260901211604 67 99 4.0 5.0 0.00 0.55 0.55 97 1021.2
20260901211101 67 43 1.0 6.0 0.00 0.55 0.55 97 1021.0
20260901210556 67 136 1.0 5.0 0.00 0.55 0.55 97 1021.1
20260901210052 67 28 0.0 2.0 0.00 0.55 0.55 97 1021.2
20260901205548 67 119 5.0 7.0 0.00 0.55 0.55 97 1021.0
20260901205048 68 121 3.0 7.0 0.00 0.55 0.55 97 1020.8
20260901204544 68 100 3.0 5.0 0.00 0.55 0.55 97 1021.0
20260901204039 67 89 6.0 8.0 0.00 0.55 0.55 97 1020.9
20260901203533 68 118 4.0 5.0 0.00 0.55 0.55 97 1021.1
20260901203028 68 123 1.0 5.0 0.00 0.55 0.55 97 1021.0
20260901202523 68 78 2.0 3.0 0.05 0.55 0.55 97 1021.1
20260901202019 67 111 3.0 3.0 0.00 0.54 0.54 97 1021.2
20260901201514 67 111 3.0 3.0 0.00 0.54 0.54 97 1021.1
20260901201008 67 85 1.0 1.0 0.00 0.54 0.54 97 1021.2
20260901200503 67 85 1.0 5.0 0.00 0.54 0.54 97 1021.3
20260901200003 67 71 2.0 3.0 0.00 0.54 0.54 97 1021.4
20260901195500 67 144 3.0 5.0 0.00 0.54 0.54 97 1021.3
20260901194954 67 95 4.0 6.0 0.00 0.54 0.54 97 1021.4
20260901194450 67 113 3.0 5.0 0.00 0.54 0.54 97 1021.4
20260901193946 67 55 2.0 7.0 0.00 0.54 0.54 97 1021.5
20260901193445 68 111 3.0 6.0 0.00 0.54 0.54 97 1021.2
20260901192944 68 142 1.0 5.0 0.00 0.54 0.54 97 1021.4
20260901192440 67 81 1.0 5.0 0.00 0.54 0.54 97 1021.3
20260901191936 67 116 4.0 5.0 0.00 0.54 0.54 97 1021.4
20260901191432 68 84 4.0 5.0 0.07 0.54 0.54 97 1021.0
20260901190928 68 10 0.0 0.0 0.07 0.54 0.54 97 1021.0
20260901190428 68 42 0.0 0.0 0.00 0.53 0.53 97 1021.1
20260901185925 68 45 0.0 1.0 0.00 0.53 0.53 97 1021.2
20260901185426 68 40 0.0 2.0 0.00 0.53 0.53 97 1020.8
20260901184926 68 123 3.0 5.0 0.00 0.53 0.53 97 1020.9
20260901184421 68 110 1.0 1.0 0.00 0.53 0.53 97 1021.0
20260901183916 68 45 1.0 2.0 0.00 0.53 0.53 97 1020.9
20260901183416 68 74 1.0 3.0 0.00 0.53 0.53 97 1020.9
20260901182907 68 47 1.0 1.0 0.00 0.53 0.53 97 1020.8
20260901182407 68 109 3.0 3.0 0.00 0.53 0.53 97 1020.8
20260901181856 68 138 3.0 3.0 0.00 0.53 0.53 97 1020.8
20260901181351 68 69 1.0 1.0 0.00 0.53 0.53 97 1020.8
20260901180850 68 106 2.0 2.0 0.00 0.53 0.53 97 1020.8
20260901180349 67 33 1.0 1.0 0.05 0.53 0.53 97 1020.7
20260901175848 67 61 0.0 1.0 0.05 0.53 0.53 97 1021.1
20260901175343 67 107 1.0 2.0 0.00 0.52 0.52 97 1021.0
20260901174838 67 92 0.0 1.0 0.00 0.52 0.52 97 1020.9
20260901174334 67 10 1.0 3.0 0.00 0.52 0.52 97 1020.8
20260901173829 67 123 0.0 1.0 0.00 0.52 0.52 97 1020.7
20260901173324 67 18 0.0 1.0 0.00 0.52 0.52 97 1020.6
20260901172821 67 1 0.0 0.0 0.00 0.52 0.52 97 1020.7
20260901172320 67 1 0.0 0.0 0.00 0.52 0.52 97 1020.7
20260901171817 67 36 0.0 1.0 0.00 0.52 0.52 97 1020.7
20260901171316 67 56 3.0 3.0 0.00 0.52 0.52 97 1020.5
20260901170811 67 68 0.0 1.0 0.00 0.52 0.52 98 1020.8
20260901170310 67 68 0.0 1.0 0.00 0.52 0.52 98 1020.7
20260901165809 67 13 0.0 0.0 0.00 0.52 0.52 98 1020.6
20260901165306 67 73 2.0 3.0 0.00 0.52 0.52 98 1020.7
20260901164800 67 69 1.0 1.0 0.00 0.52 0.52 98 1020.5
20260901164255 67 108 2.0 2.0 0.00 0.52 0.52 98 1020.6
20260901163751 67 33 1.0 2.0 0.00 0.52 0.52 98 1020.8
20260901163245 67 33 1.0 2.0 0.00 0.52 0.52 98 1020.5
20260901162740 67 71 2.0 2.0 0.00 0.52 0.52 98 1020.6
20260901162239 67 71 4.0 5.0 0.00 0.52 0.52 98 1020.6
20260901161738 67 61 2.0 2.0 0.00 0.52 0.52 98 1020.7
20260901161233 67 61 2.0 2.0 0.00 0.52 0.52 98 1020.7
20260901160729 67 61 2.0 2.0 0.00 0.52 0.52 98 1020.6
20260901160225 67 61 2.0 2.0 0.00 0.52 0.52 98 1020.6
20260901155723 67 61 2.0 2.0 0.00 0.52 0.52 98 1020.7
20260901155219 67 61 2.0 2.0 0.00 0.52 0.52 98 1020.6
20260901154714 67 138 2.0 2.0 0.00 0.52 0.52 98 1020.5
20260901154209 67 138 2.0 2.0 0.00 0.52 0.52 98 1020.5
20260901153704 67 173 1.0 5.0 0.00 0.52 0.52 98 1020.2
20260901153203 67 157 5.0 7.0 0.00 0.52 0.52 98 1020.4